timestamp,surface_pressure_avg,surface_temp_avg,battery_voltage,lat,long
2018-12-09 00:00:00+00:00,338.983,3.1,12.89,47.84626,-54.09684
2018-12-09 00:10:00+00:00,337.7947,3.1,12.81,47.84626,-54.09684
2018-12-09 00:20:00+00:00,338.403,3.1,12.89,47.84626,-54.09684
2018-12-09 00:30:00+00:00,344.7379,3.13,12.89,47.84626,-54.09684
2018-12-09 00:40:00+00:00,342.0945,3.2,12.97,47.84626,-54.09684
2018-12-09 00:50:00+00:00,338.488,3.29,12.97,47.84626,-54.09684
2018-12-09 01:00:00+00:00,341.0912,3.3,12.89,47.84626,-54.09684
2018-12-09 01:10:00+00:00,343.3513,3.3,12.81,47.84626,-54.09684
2018-12-09 01:20:00+00:00,339.413,3.3,12.89,47.84626,-54.09684
2018-12-09 01:30:00+00:00,330.5629,3.37,12.89,47.84626,-54.09684
2018-12-09 01:40:00+00:00,329.5496,3.4,12.97,47.84626,-54.09684
2018-12-09 01:50:00+00:00,328.0181,3.4,12.97,47.84626,-54.09684
2018-12-09 02:00:00+00:00,321.7463,3.4,12.89,47.84626,-54.09684
2018-12-09 02:10:00+00:00,320.7164,3.4,12.81,47.84626,-54.09684
2018-12-09 02:20:00+00:00,322.1113,3.3,12.89,47.84626,-54.09684
2018-12-09 02:30:00+00:00,316.873,3.1,12.89,47.84626,-54.09684
2018-12-09 02:40:00+00:00,300.7047,3.0,12.97,47.84626,-54.09684
2018-12-09 02:50:00+00:00,295.8064,3.1,12.97,47.84626,-54.09684
2018-12-09 03:00:00+00:00,293.6996,3.3,12.89,47.84626,-54.09684
2018-12-09 03:10:00+00:00,287.7297,3.33,12.81,47.84626,-54.09684
2018-12-09 03:20:00+00:00,279.728,3.4,12.89,47.84626,-54.09684
2018-12-09 03:30:00+00:00,269.5598,3.05,12.89,47.84626,-54.09684
2018-12-09 03:40:00+00:00,262.188,3.41,12.97,47.84626,-54.09684
2018-12-09 03:50:00+00:00,251.4298,3.49,12.97,47.84626,-54.09684
2018-12-09 04:00:00+00:00,240.7514,3.44,12.89,47.84626,-54.09684
2018-12-09 04:10:00+00:00,228.1865,3.5,12.81,47.84626,-54.09684
2018-12-09 04:20:00+00:00,222.8414,3.5,12.89,47.84626,-54.09684
2018-12-09 04:30:00+00:00,219.9948,3.4,12.89,47.84626,-54.09684
2018-12-09 04:40:00+00:00,211.3064,3.2,12.97,47.84626,-54.09684
2018-12-09 04:50:00+00:00,202.2715,3.1,12.97,47.84626,-54.09684
2018-12-09 05:00:00+00:00,198.633,3.0,12.89,47.84626,-54.09684
2018-12-09 05:10:00+00:00,194.7715,2.65,12.81,47.84626,-54.09684
2018-12-09 05:20:00+00:00,188.7598,2.56,12.89,47.84626,-54.09684
2018-12-09 05:30:00+00:00,183.7898,2.8,12.89,47.84626,-54.09684
2018-12-09 05:40:00+00:00,186.8299,3.2,12.89,47.84626,-54.09684
2018-12-09 05:50:00+00:00,183.0381,3.07,12.97,47.84626,-54.09684
2018-12-09 06:00:00+00:00,176.1031,2.8,12.81,47.84626,-54.09684
2018-12-09 06:10:00+00:00,183.3398,2.82,12.81,47.84626,-54.09684
2018-12-09 06:20:00+00:00,188.5348,2.86,12.89,47.84626,-54.09684
2018-12-09 06:30:00+00:00,183.8398,2.99,12.89,47.84626,-54.09684
2018-12-09 06:40:00+00:00,186.3831,3.02,12.89,47.84626,-54.09684
2018-12-09 06:50:00+00:00,199.5631,3.1,12.89,47.84626,-54.09684
2018-12-09 07:00:00+00:00,208.2832,3.11,12.81,47.84626,-54.09684
2018-12-09 07:10:00+00:00,211.4231,3.4,12.81,47.84626,-54.09684
2018-12-09 07:20:00+00:00,216.3531,3.5,12.89,47.84626,-54.09684
2018-12-09 07:30:00+00:00,226.9998,3.59,12.89,47.84626,-54.09684
2018-12-09 07:40:00+00:00,232.6313,3.55,12.89,47.84626,-54.09684
2018-12-09 07:50:00+00:00,232.698,3.58,12.89,47.84626,-54.09684
2018-12-09 08:00:00+00:00,234.2165,3.58,12.81,47.84626,-54.09684
2018-12-09 08:10:00+00:00,240.5481,3.55,12.73,47.84626,-54.09684
2018-12-09 08:20:00+00:00,244.7213,3.57,12.89,47.84626,-54.09684
2018-12-09 08:30:00+00:00,245.6014,3.59,12.89,47.84626,-54.09684
2018-12-09 08:40:00+00:00,255.6314,3.59,12.89,47.84626,-54.09684
2018-12-09 08:50:00+00:00,264.7664,3.6,12.89,47.84626,-54.09684
2018-12-09 09:00:00+00:00,266.9498,3.6,12.81,47.84626,-54.09684
2018-12-09 09:10:00+00:00,267.1064,3.6,12.73,47.84626,-54.09684
2018-12-09 09:20:00+00:00,275.4764,3.6,12.81,47.84626,-54.09684
2018-12-09 09:30:00+00:00,282.5598,3.65,12.81,47.84626,-54.09684
2018-12-09 09:40:00+00:00,285.1914,3.7,12.89,47.84626,-54.09684
2018-12-09 09:50:00+00:00,282.2063,3.68,12.89,47.84626,-54.09684
2018-12-09 10:00:00+00:00,290.0864,3.6,12.81,47.84626,-54.09684
2018-12-09 10:10:00+00:00,300.9214,3.5,12.73,47.84626,-54.09684
2018-12-09 10:20:00+00:00,308.9613,3.04,12.81,47.84626,-54.09684
2018-12-09 10:30:00+00:00,309.8779,2.9,12.81,47.84626,-54.09684
2018-12-09 10:40:00+00:00,319.1547,3.06,12.89,47.84626,-54.09684
2018-12-09 10:50:00+00:00,330.223,3.3,12.89,47.84626,-54.09684
2018-12-09 11:00:00+00:00,337.5745,3.3,12.81,47.84626,-54.09684
2018-12-09 11:10:00+00:00,342.0446,3.36,12.73,47.84626,-54.09684
2018-12-09 11:20:00+00:00,352.7696,3.4,12.81,47.84626,-54.09684
2018-12-09 11:30:00+00:00,361.6213,3.4,13.21,47.84626,-54.09684
2018-12-09 11:40:00+00:00,362.7778,3.49,13.68,47.84626,-54.09684
2018-12-09 11:50:00+00:00,364.2713,3.56,14.4,47.84626,-54.09684
2018-12-09 12:00:00+00:00,372.543,3.67,14.96,47.84626,-54.09684
2018-12-09 12:10:00+00:00,376.8279,3.7,16.23,47.84626,-54.09684
2018-12-09 12:20:00+00:00,377.4879,3.7,16.71,47.84626,-54.09684
2018-12-09 12:30:00+00:00,377.9563,3.7,16.87,47.84626,-54.09684
2018-12-09 12:40:00+00:00,381.5729,3.7,16.87,47.84626,-54.09684
2018-12-09 12:50:00+00:00,383.8864,3.69,16.87,47.84626,-54.09684
2018-12-09 13:00:00+00:00,383.6013,3.67,16.31,47.84626,-54.09684
2018-12-09 13:10:00+00:00,384.1462,3.65,15.83,47.84626,-54.09684
2018-12-09 13:20:00+00:00,385.4563,3.6,16.47,47.84626,-54.09684
2018-12-09 13:30:00+00:00,386.9128,3.6,15.67,47.84626,-54.09684
2018-12-09 13:40:00+00:00,382.9462,3.6,15.6,47.84626,-54.09684
2018-12-09 13:50:00+00:00,381.2946,3.6,15.51,47.84626,-54.09684
2018-12-09 14:00:00+00:00,382.4929,3.6,15.11,47.84626,-54.09684
2018-12-09 14:10:00+00:00,377.4346,3.6,15.2,47.84626,-54.09684
2018-12-09 14:20:00+00:00,368.9346,3.6,15.35,47.84626,-54.09684
2018-12-09 14:30:00+00:00,369.4446,3.68,15.2,47.84626,-54.09684
2018-12-09 14:40:00+00:00,369.1879,3.65,15.2,47.84626,-54.09684
2018-12-09 14:50:00+00:00,359.7696,3.71,15.11,47.84626,-54.09684
2018-12-09 15:00:00+00:00,348.098,3.77,14.96,47.84626,-54.09684
2018-12-09 15:10:00+00:00,344.443,3.97,15.04,47.84626,-54.09684
2018-12-09 15:20:00+00:00,338.918,4.0,15.11,47.84626,-54.09684
2018-12-09 15:30:00+00:00,327.9846,4.07,15.04,47.84626,-54.09684
2018-12-09 15:40:00+00:00,318.6913,4.03,15.04,47.84626,-54.09684
2018-12-09 15:50:00+00:00,313.1997,4.03,14.96,47.84626,-54.09684
2018-12-09 16:00:00+00:00,303.3863,4.1,14.96,47.84626,-54.09684
2018-12-09 16:10:00+00:00,293.378,4.2,14.96,47.84626,-54.09684
2018-12-09 16:20:00+00:00,284.3197,4.2,14.96,47.84626,-54.09684
2018-12-09 16:30:00+00:00,280.3797,4.2,14.96,47.84626,-54.09684
2018-12-09 16:40:00+00:00,268.0614,4.1,14.96,47.84626,-54.09684
2018-12-09 16:50:00+00:00,256.9214,4.14,14.96,47.84626,-54.09684
2018-12-09 17:00:00+00:00,252.903,4.2,14.8,47.84626,-54.09684
2018-12-09 17:10:00+00:00,247.9631,4.2,14.8,47.84626,-54.09684
2018-12-09 17:20:00+00:00,235.1765,4.2,14.88,47.84626,-54.09684
2018-12-09 17:30:00+00:00,226.8081,4.2,14.88,47.84626,-54.09684
2018-12-09 17:40:00+00:00,226.7714,4.2,14.88,47.84626,-54.09684
2018-12-09 17:50:00+00:00,223.8098,4.2,14.8,47.84626,-54.09684
2018-12-09 18:00:00+00:00,216.8414,4.2,14.72,47.84626,-54.09684
2018-12-09 18:10:00+00:00,210.9481,4.19,14.64,47.84626,-54.09684
2018-12-09 18:20:00+00:00,209.3848,4.1,14.72,47.84626,-54.09684
2018-12-09 18:30:00+00:00,205.9681,4.1,14.72,47.84626,-54.09684
2018-12-09 18:40:00+00:00,201.4098,4.0,14.72,47.84626,-54.09684
2018-12-09 18:50:00+00:00,201.8848,3.94,14.64,47.84626,-54.09684
2018-12-09 19:00:00+00:00,204.2915,3.94,14.4,47.84626,-54.09684
2018-12-09 19:10:00+00:00,203.4265,3.9,14.16,47.84626,-54.09684
2018-12-09 19:20:00+00:00,202.4098,3.8,14.08,47.84626,-54.09684
2018-12-09 19:30:00+00:00,206.9681,3.8,14.0,47.84626,-54.09684
2018-12-09 19:40:00+00:00,210.7481,3.8,13.92,47.84626,-54.09684
2018-12-09 19:50:00+00:00,209.0847,3.84,13.84,47.84626,-54.09684
2018-12-09 20:00:00+00:00,211.4981,3.8,13.68,47.84626,-54.09684
2018-12-09 20:10:00+00:00,217.4348,3.87,13.53,47.84626,-54.09684
2018-12-09 20:20:00+00:00,221.0848,3.86,13.53,47.84626,-54.09684
2018-12-09 20:30:00+00:00,225.7365,3.8,13.44,47.84626,-54.09684
2018-12-09 20:40:00+00:00,230.233,3.8,13.44,47.84626,-54.09684
2018-12-09 20:50:00+00:00,234.1131,3.8,13.44,47.84626,-54.09684
2018-12-09 21:00:00+00:00,237.6214,3.8,13.29,47.84626,-54.09684
2018-12-09 21:10:00+00:00,240.2648,3.8,13.21,47.84626,-54.09684
2018-12-09 21:20:00+00:00,241.9864,3.8,13.21,47.84626,-54.09684
2018-12-09 21:30:00+00:00,247.1131,3.8,13.21,47.84626,-54.09684
2018-12-09 21:40:00+00:00,250.888,3.8,13.21,47.84626,-54.09684
2018-12-09 21:50:00+00:00,256.7164,3.8,13.21,47.84626,-54.09684
2018-12-09 22:00:00+00:00,262.7564,3.8,13.13,47.84626,-54.09684
2018-12-09 22:10:00+00:00,272.0331,3.8,12.97,47.84626,-54.09684
2018-12-09 22:20:00+00:00,274.9797,3.8,13.05,47.84626,-54.09684
2018-12-09 22:30:00+00:00,277.0664,3.8,13.05,47.84626,-54.09684
2018-12-09 22:40:00+00:00,281.5997,3.8,13.13,47.84626,-54.09684
2018-12-09 22:50:00+00:00,290.8297,4.07,13.13,47.84626,-54.09684
2018-12-09 23:00:00+00:00,292.5814,4.1,13.05,47.84626,-54.09684
2018-12-09 23:10:00+00:00,293.5179,4.1,12.97,47.84626,-54.09684
2018-12-09 23:20:00+00:00,299.4047,4.1,13.05,47.84626,-54.09684
2018-12-09 23:30:00+00:00,308.0029,4.1,13.05,47.84626,-54.09684
2018-12-09 23:40:00+00:00,309.5297,4.1,13.05,47.84626,-54.09684
2018-12-09 23:50:00+00:00,311.8097,4.12,13.05,47.84626,-54.09684
